Time,TemperatureF,DewpointF,PressureIn,WindDirection,WindDirectionDegrees,WindSpeedMPH,WindSpeedGustMPH,Humidity,HourlyPrecipIn,Conditions,Clouds,dailyrainin,SoftwareType,DateUTC
2013-01-24 00:03:00,41.0,40.0,30.05,East,92,0.0,0.0,96,0.00,,,0.17,,2013-01-24 05:03:00,
2013-01-24 00:12:00,41.0,40.0,30.05,East,92,0.0,0.0,96,0.00,,,0.17,,2013-01-24 05:12:00,
2013-01-24 00:22:00,41.0,40.0,30.06,WNW,292,0.0,3.0,96,0.00,,,0.17,,2013-01-24 05:22:00,
2013-01-24 00:32:00,41.0,40.0,30.06,WNW,292,0.0,3.0,96,0.00,,,0.17,,2013-01-24 05:32:00,
2013-01-24 00:43:00,41.0,40.0,30.06,WNW,292,0.0,3.0,96,0.00,,,0.17,,2013-01-24 05:43:00,
2013-01-24 00:53:00,41.0,40.0,30.08,SW,232,0.0,5.0,96,0.00,,,0.17,,2013-01-24 05:53:00,
2013-01-24 01:02:00,41.0,40.0,30.08,SW,232,0.0,5.0,96,0.00,,,0.17,,2013-01-24 06:02:00,
2013-01-24 01:12:00,41.0,40.0,30.08,SW,232,0.0,5.0,96,0.00,,,0.17,,2013-01-24 06:12:00,
2013-01-24 01:22:00,41.0,40.0,30.09,East,92,1.0,5.0,96,0.00,,,0.17,,2013-01-24 06:22:00,
2013-01-24 01:32:00,41.0,40.0,30.09,East,92,1.0,5.0,96,0.00,,,0.17,,2013-01-24 06:32:00,
2013-01-24 01:42:00,41.0,40.0,30.09,East,92,1.0,5.0,96,0.00,,,0.17,,2013-01-24 06:42:00,
2013-01-24 01:52:00,41.0,40.0,30.11,ENE,70,1.0,5.0,96,0.00,,,0.17,,2013-01-24 06:52:00,
2013-01-24 02:02:00,41.0,40.0,30.11,ENE,70,1.0,5.0,96,0.00,,,0.17,,2013-01-24 07:02:00,
2013-01-24 02:12:00,41.0,40.0,30.11,ENE,70,1.0,5.0,96,0.00,,,0.17,,2013-01-24 07:12:00,
2013-01-24 02:22:00,41.0,40.0,30.12,SSW,209,2.0,6.0,96,0.00,,,0.17,,2013-01-24 07:22:00,
2013-01-24 02:32:00,41.0,40.0,30.12,SSW,209,2.0,6.0,96,0.00,,,0.17,,2013-01-24 07:32:00,
2013-01-24 02:43:00,41.0,40.0,30.12,SSW,209,2.0,6.0,96,0.00,,,0.17,,2013-01-24 07:43:00,
2013-01-24 02:53:00,41.0,40.0,30.14,South,171,2.0,9.0,95,0.00,,,0.17,,2013-01-24 07:53:00,
2013-01-24 03:01:00,41.0,40.0,30.14,South,171,2.0,9.0,95,0.00,,,0.17,,2013-01-24 08:01:00,
2013-01-24 03:12:00,41.0,40.0,30.14,South,171,2.0,9.0,95,0.00,,,0.17,,2013-01-24 08:12:00,
2013-01-24 03:22:00,41.0,39.0,30.15,South,185,0.0,6.0,94,0.00,,,0.17,,2013-01-24 08:22:00,
2013-01-24 03:32:00,41.0,39.0,30.15,South,185,0.0,6.0,94,0.00,,,0.17,,2013-01-24 08:32:00,
2013-01-24 03:43:00,41.0,39.0,30.15,South,185,0.0,6.0,94,0.00,,,0.17,,2013-01-24 08:43:00,
2013-01-24 03:53:00,40.0,39.0,30.16,SSW,212,0.0,2.0,95,0.00,,,0.17,,2013-01-24 08:53:00,
2013-01-24 04:02:00,40.0,39.0,30.16,SSW,212,0.0,2.0,95,0.00,,,0.17,,2013-01-24 09:02:00,
2013-01-24 04:12:00,40.0,39.0,30.16,SSW,212,0.0,2.0,95,0.00,,,0.17,,2013-01-24 09:12:00,
2013-01-24 04:22:00,40.0,39.0,30.16,SSW,212,0.0,0.0,95,0.00,,,0.17,,2013-01-24 09:22:00,
2013-01-24 04:32:00,40.0,39.0,30.16,SSW,212,0.0,0.0,95,0.00,,,0.17,,2013-01-24 09:32:00,
2013-01-24 04:43:00,40.0,39.0,30.16,SSW,212,0.0,0.0,95,0.00,,,0.17,,2013-01-24 09:43:00,
2013-01-24 04:53:00,39.0,38.0,30.18,SSW,212,0.0,0.0,95,0.00,,,0.17,,2013-01-24 09:53:00,
2013-01-24 05:02:00,39.0,38.0,30.18,SSW,212,0.0,0.0,95,0.00,,,0.17,,2013-01-24 10:02:00,
2013-01-24 05:12:00,39.0,38.0,30.18,SSW,212,0.0,0.0,95,0.00,,,0.17,,2013-01-24 10:12:00,
2013-01-24 05:22:00,38.0,37.0,30.19,SSW,212,0.0,0.0,95,0.00,,,0.17,,2013-01-24 10:22:00,
2013-01-24 05:32:00,38.0,37.0,30.19,SSW,212,0.0,0.0,95,0.00,,,0.17,,2013-01-24 10:32:00,
2013-01-24 05:43:00,38.0,37.0,30.19,SSW,212,0.0,0.0,95,0.00,,,0.17,,2013-01-24 10:43:00,
2013-01-24 05:52:00,38.0,37.0,30.20,SSW,212,0.0,2.0,96,0.00,,,0.17,,2013-01-24 10:52:00,
2013-01-24 06:02:00,38.0,37.0,30.20,SSW,212,0.0,2.0,96,0.00,,,0.17,,2013-01-24 11:02:00,
2013-01-24 06:12:00,38.0,37.0,30.20,SSW,212,0.0,2.0,96,0.00,,,0.17,,2013-01-24 11:12:00,
2013-01-24 06:22:00,38.0,37.0,30.20,SSW,212,0.0,0.0,96,0.00,,,0.17,,2013-01-24 11:22:00,
2013-01-24 06:32:00,38.0,37.0,30.20,SSW,212,0.0,0.0,96,0.00,,,0.17,,2013-01-24 11:32:00,
2013-01-24 06:43:00,38.0,37.0,30.20,SSW,212,0.0,0.0,96,0.00,,,0.17,,2013-01-24 11:43:00,
2013-01-24 06:53:00,37.0,36.0,30.21,SSW,212,0.0,0.0,96,0.00,,,0.17,,2013-01-24 11:53:00,
2013-01-24 07:02:00,37.0,36.0,30.21,SSW,212,0.0,0.0,96,0.00,,,0.17,,2013-01-24 12:02:00,
2013-01-24 07:12:00,37.0,36.0,30.21,SSW,212,0.0,0.0,96,0.00,,,0.17,,2013-01-24 12:12:00,
2013-01-24 07:22:00,36.0,35.0,30.21,SSW,212,0.0,2.0,96,0.00,,,0.17,,2013-01-24 12:22:00,
2013-01-24 07:32:00,36.0,35.0,30.21,SSW,212,0.0,2.0,96,0.00,,,0.17,,2013-01-24 12:32:00,
2013-01-24 07:43:00,36.0,35.0,30.21,SSW,212,0.0,2.0,96,0.00,,,0.17,,2013-01-24 12:43:00,
2013-01-24 07:53:00,36.0,35.0,30.19,SSW,212,0.0,0.0,96,0.00,,,0.17,,2013-01-24 12:53:00,
2013-01-24 08:02:00,36.0,35.0,30.19,SSW,212,0.0,0.0,96,0.00,,,0.17,,2013-01-24 13:02:00,
2013-01-24 08:12:00,36.0,35.0,30.19,SSW,212,0.0,0.0,96,0.00,,,0.17,,2013-01-24 13:12:00,
2013-01-24 08:22:00,35.0,34.0,30.20,SSW,212,0.0,0.0,96,0.00,,,0.17,,2013-01-24 13:22:00,
2013-01-24 08:32:00,35.0,34.0,30.20,SSW,212,0.0,0.0,96,0.00,,,0.17,,2013-01-24 13:32:00,
2013-01-24 08:43:00,35.0,34.0,30.20,SSW,212,0.0,0.0,96,0.00,,,0.17,,2013-01-24 13:43:00,
2013-01-24 08:53:00,35.0,34.0,30.20,SSW,212,0.0,0.0,96,0.00,,,0.17,,2013-01-24 13:53:00,
2013-01-24 09:02:00,35.0,34.0,30.20,SSW,212,0.0,0.0,96,0.00,,,0.17,,2013-01-24 14:02:00,
2013-01-24 09:12:00,35.0,34.0,30.20,SSW,212,0.0,0.0,96,0.00,,,0.17,,2013-01-24 14:12:00,
2013-01-24 09:22:00,34.0,33.0,30.21,SSW,212,0.0,0.0,96,0.00,,,0.17,,2013-01-24 14:22:00,
2013-01-24 09:32:00,34.0,33.0,30.21,SSW,212,0.0,0.0,96,0.00,,,0.17,,2013-01-24 14:32:00,
2013-01-24 09:43:00,34.0,33.0,30.21,SSW,212,0.0,0.0,96,0.00,,,0.17,,2013-01-24 14:43:00,
2013-01-24 09:53:00,34.0,33.0,30.21,SSW,212,0.0,0.0,96,0.00,,,0.17,,2013-01-24 14:53:00,
2013-01-24 10:02:00,34.0,33.0,30.21,SSW,212,0.0,0.0,96,0.00,,,0.17,,2013-01-24 15:02:00,
2013-01-24 10:12:00,34.0,33.0,30.21,SSW,212,0.0,0.0,96,0.00,,,0.17,,2013-01-24 15:12:00,
2013-01-24 10:22:00,34.0,33.0,30.20,SSW,212,0.0,0.0,96,0.00,,,0.17,,2013-01-24 15:22:00,
2013-01-24 10:32:00,34.0,33.0,30.20,SSW,212,0.0,0.0,96,0.00,,,0.17,,2013-01-24 15:32:00,
2013-01-24 10:43:00,34.0,33.0,30.20,SSW,212,0.0,0.0,96,0.00,,,0.17,,2013-01-24 15:43:00,
2013-01-24 10:53:00,34.0,33.0,30.19,SSW,212,0.0,0.0,96,0.00,,,0.17,,2013-01-24 15:53:00,
2013-01-24 11:02:00,34.0,33.0,30.19,SSW,212,0.0,0.0,96,0.00,,,0.17,,2013-01-24 16:02:00,
2013-01-24 11:12:00,34.0,33.0,30.19,SSW,212,0.0,0.0,96,0.00,,,0.17,,2013-01-24 16:12:00,
2013-01-24 11:22:00,34.0,33.0,30.20,SSW,212,0.0,0.0,97,0.00,,,0.17,,2013-01-24 16:22:00,
2013-01-24 11:33:00,34.0,33.0,30.20,SSW,212,0.0,0.0,97,0.00,,,0.17,,2013-01-24 16:33:00,
2013-01-24 11:43:00,34.0,33.0,30.20,SSW,212,0.0,0.0,97,0.00,,,0.17,,2013-01-24 16:43:00,
2013-01-24 12:01:00,34.0,33.0,30.19,SSW,212,0.0,0.0,96,0.00,,,0.17,,2013-01-24 17:01:00,
2013-01-24 12:11:00,34.0,33.0,30.19,SSW,212,0.0,0.0,96,0.00,,,0.17,,2013-01-24 17:11:00,
2013-01-24 12:21:00,35.0,34.0,30.19,SSW,212,0.0,0.0,97,0.00,,,0.17,,2013-01-24 17:21:00,
2013-01-24 12:31:00,35.0,34.0,30.19,SSW,212,0.0,0.0,97,0.00,,,0.17,,2013-01-24 17:31:00,
2013-01-24 12:42:00,35.0,34.0,30.19,SSW,212,0.0,0.0,97,0.00,,,0.17,,2013-01-24 17:42:00,
2013-01-24 12:52:00,36.0,35.0,30.19,SSW,212,0.0,0.0,97,0.00,,,0.17,,2013-01-24 17:52:00,
2013-01-24 13:01:00,36.0,35.0,30.19,SSW,212,0.0,0.0,97,0.00,,,0.17,,2013-01-24 18:01:00,
2013-01-24 13:11:00,38.0,37.0,30.18,SSW,212,0.0,0.0,97,0.00,,,0.17,,2013-01-24 18:11:00,
2013-01-24 13:21:00,38.0,37.0,30.18,SSW,212,0.0,0.0,97,0.00,,,0.17,,2013-01-24 18:21:00,
2013-01-24 13:31:00,38.0,37.0,30.18,SSW,212,0.0,0.0,97,0.00,,,0.17,,2013-01-24 18:31:00,
2013-01-24 13:43:00,38.0,37.0,30.18,SSW,212,0.0,0.0,97,0.00,,,0.17,,2013-01-24 18:43:00,
2013-01-24 13:53:00,41.0,39.0,30.17,SSW,212,0.0,2.0,92,0.00,,,0.17,,2013-01-24 18:53:00,
2013-01-24 14:01:00,41.0,39.0,30.17,SSW,212,0.0,2.0,92,0.00,,,0.17,,2013-01-24 19:01:00,
2013-01-24 14:12:00,41.0,39.0,30.17,SSW,212,0.0,2.0,92,0.00,,,0.17,,2013-01-24 19:12:00,
2013-01-24 14:21:00,42.0,39.0,30.17,ESE,109,0.0,0.0,90,0.00,,,0.17,,2013-01-24 19:21:00,
2013-01-24 14:32:00,42.0,39.0,30.17,ESE,109,0.0,0.0,90,0.00,,,0.17,,2013-01-24 19:32:00,
2013-01-24 14:42:00,43.0,38.0,30.16,ESE,109,0.0,1.0,84,0.00,,,0.17,,2013-01-24 19:42:00,
2013-01-24 14:52:00,43.0,38.0,30.16,ESE,109,0.0,1.0,84,0.00,,,0.17,,2013-01-24 19:52:00,
2013-01-24 15:01:00,43.0,38.0,30.16,ESE,109,0.0,1.0,84,0.00,,,0.17,,2013-01-24 20:01:00,
2013-01-24 15:11:00,43.0,38.0,30.16,ESE,109,0.0,1.0,84,0.00,,,0.17,,2013-01-24 20:11:00,
2013-01-24 15:21:00,43.0,37.0,30.15,ESE,109,0.0,0.0,80,0.00,,,0.16,,2013-01-24 20:21:00,
2013-01-24 15:32:00,43.0,37.0,30.15,ESE,109,0.0,0.0,80,0.00,,,0.16,,2013-01-24 20:32:00,
2013-01-24 15:42:00,43.0,37.0,30.15,ESE,109,0.0,0.0,80,0.00,,,0.16,,2013-01-24 20:42:00,
2013-01-24 15:52:00,44.0,38.0,30.14,ESE,109,0.0,0.0,80,0.00,,,0.16,,2013-01-24 20:52:00,
2013-01-24 16:01:00,44.0,38.0,30.14,ESE,109,0.0,0.0,80,0.00,,,0.16,,2013-01-24 21:01:00,
2013-01-24 16:11:00,44.0,38.0,30.14,ESE,109,0.0,0.0,80,0.00,,,0.16,,2013-01-24 21:11:00,
2013-01-24 16:21:00,45.0,38.0,30.12,ESE,109,0.0,3.0,75,0.00,,,0.15,,2013-01-24 21:21:00,
2013-01-24 16:32:00,45.0,38.0,30.12,ESE,109,0.0,3.0,75,0.00,,,0.15,,2013-01-24 21:32:00,
2013-01-24 16:43:00,45.0,38.0,30.12,ESE,109,0.0,3.0,75,0.00,,,0.15,,2013-01-24 21:43:00,
2013-01-24 16:52:00,45.0,38.0,30.11,ESE,109,0.0,0.0,75,0.00,,,0.15,,2013-01-24 21:52:00,
2013-01-24 17:02:00,45.0,38.0,30.11,ESE,109,0.0,0.0,75,0.00,,,0.15,,2013-01-24 22:02:00,
2013-01-24 17:12:00,45.0,38.0,30.11,ESE,109,0.0,0.0,75,0.00,,,0.15,,2013-01-24 22:12:00,
2013-01-24 17:21:00,45.0,39.0,30.10,ESE,109,0.0,0.0,80,0.00,,,0.14,,2013-01-24 22:21:00,
2013-01-24 17:31:00,45.0,39.0,30.10,ESE,109,0.0,0.0,80,0.00,,,0.14,,2013-01-24 22:31:00,
2013-01-24 17:42:00,45.0,39.0,30.10,ESE,109,0.0,0.0,80,0.00,,,0.14,,2013-01-24 22:42:00,
2013-01-24 17:52:00,44.0,39.0,30.09,ESE,109,0.0,0.0,81,0.00,,,0.14,,2013-01-24 22:52:00,
2013-01-24 18:01:00,44.0,39.0,30.09,ESE,109,0.0,0.0,81,0.00,,,0.14,,2013-01-24 23:01:00,
2013-01-24 18:11:00,44.0,39.0,30.09,ESE,109,0.0,0.0,81,0.00,,,0.14,,2013-01-24 23:11:00,
2013-01-24 18:21:00,45.0,39.0,30.08,ESE,109,0.0,0.0,79,0.00,,,0.11,,2013-01-24 23:21:00,
2013-01-24 18:31:00,45.0,39.0,30.08,ESE,109,0.0,0.0,79,0.00,,,0.11,,2013-01-24 23:31:00,
2013-01-24 18:42:00,45.0,39.0,30.08,ESE,109,0.0,0.0,79,0.00,,,0.11,,2013-01-24 23:42:00,
2013-01-24 18:52:00,45.0,39.0,30.07,ESE,109,0.0,0.0,80,0.00,,,0.11,,2013-01-24 23:52:00,
2013-01-24 19:01:00,45.0,39.0,30.07,ESE,109,0.0,0.0,80,0.00,,,0.11,,2013-01-25 00:01:00,
2013-01-24 19:12:00,45.0,39.0,30.07,ESE,109,0.0,0.0,80,0.00,,,0.11,,2013-01-25 00:12:00,
2013-01-24 19:21:00,44.0,39.0,30.09,ESE,109,0.0,2.0,81,0.00,,,0.06,,2013-01-25 00:21:00,
2013-01-24 19:31:00,44.0,39.0,30.09,ESE,109,0.0,2.0,81,0.00,,,0.06,,2013-01-25 00:31:00,
2013-01-24 19:42:00,44.0,39.0,30.09,ESE,109,0.0,2.0,81,0.00,,,0.06,,2013-01-25 00:42:00,
2013-01-24 19:52:00,44.0,39.0,30.09,ESE,109,0.0,2.0,81,0.00,,,0.06,,2013-01-25 00:52:00,
2013-01-24 20:01:00,44.0,39.0,30.09,ESE,109,0.0,2.0,81,0.00,,,0.06,,2013-01-25 01:01:00,
2013-01-24 20:11:00,44.0,39.0,30.09,ESE,109,0.0,2.0,81,0.00,,,0.06,,2013-01-25 01:11:00,
2013-01-24 20:21:00,44.0,39.0,30.09,ESE,109,0.0,2.0,81,0.00,,,0.06,,2013-01-25 01:21:00,
2013-01-24 20:31:00,44.0,39.0,30.09,ESE,109,0.0,2.0,81,0.00,,,0.06,,2013-01-25 01:31:00,
2013-01-24 20:52:00,42.0,39.0,30.11,SW,229,0.0,0.0,90,0.03,,,0.04,,2013-01-25 01:52:00,
2013-01-24 21:02:00,42.0,39.0,30.11,SW,229,0.0,0.0,90,0.03,,,0.04,,2013-01-25 02:02:00,
2013-01-24 21:11:00,42.0,39.0,30.11,SW,229,0.0,0.0,90,0.03,,,0.04,,2013-01-25 02:11:00,
2013-01-24 21:22:00,41.0,39.0,30.11,SW,229,0.0,0.0,92,0.06,,,0.07,,2013-01-25 02:22:00,
2013-01-24 21:31:00,41.0,39.0,30.11,SW,229,0.0,0.0,92,0.06,,,0.07,,2013-01-25 02:31:00,
2013-01-24 21:42:00,41.0,39.0,30.10,SW,229,0.0,0.0,93,0.07,,,0.10,,2013-01-25 02:42:00,
2013-01-24 21:52:00,41.0,39.0,30.10,SW,229,0.0,0.0,93,0.07,,,0.10,,2013-01-25 02:52:00,
2013-01-24 22:01:00,41.0,39.0,30.10,SW,229,0.0,0.0,93,0.07,,,0.10,,2013-01-25 03:01:00,
2013-01-24 22:12:00,40.0,38.0,30.10,SW,229,0.0,0.0,94,0.04,,,0.11,,2013-01-25 03:12:00,
2013-01-24 22:21:00,40.0,38.0,30.10,SW,229,0.0,0.0,94,0.04,,,0.11,,2013-01-25 03:21:00,
2013-01-24 22:32:00,40.0,38.0,30.10,SW,229,0.0,0.0,94,0.04,,,0.11,,2013-01-25 03:32:00,
2013-01-24 22:42:00,40.0,38.0,30.10,SW,229,0.0,0.0,94,0.04,,,0.11,,2013-01-25 03:42:00,
2013-01-24 22:52:00,40.0,39.0,30.10,SW,229,0.0,0.0,95,0.03,,,0.13,,2013-01-25 03:52:00,
2013-01-24 23:01:00,40.0,39.0,30.10,SW,229,0.0,0.0,95,0.03,,,0.13,,2013-01-25 04:01:00,
2013-01-24 23:11:00,40.0,39.0,30.09,SW,229,0.0,1.0,96,0.04,,,0.15,,2013-01-25 04:11:00,
2013-01-24 23:22:00,40.0,39.0,30.09,SW,229,0.0,1.0,96,0.04,,,0.15,,2013-01-25 04:22:00,
2013-01-24 23:31:00,40.0,39.0,30.09,SW,229,0.0,1.0,96,0.04,,,0.15,,2013-01-25 04:31:00,
2013-01-24 23:42:00,40.0,39.0,30.09,SW,229,0.0,1.0,96,0.04,,,0.15,,2013-01-25 04:42:00,
2013-01-24 23:51:00,40.0,39.0,30.08,ESE,108,0.0,2.0,96,0.03,,,0.16,,2013-01-25 04:51:00,